This demonstration page uses our WeatherBlox Daily Observations layout. Learn more.

Left ArrowRight Arrow

Hourly Observations for February 2, 2016

Temp ( °F °C ) Dew Point ( °F °C ) Humidity (%) Winds ( mph kmh ) Pressure ( in mb ) Visibility ( mi km ) Precip ( " mm )
12:04 am 00:04 Partly Cloudy 37 3 32 0 81 81 NE 15 24 29.91 1013 10 16 0.00 0.00
12:58 am 00:58 Mostly Cloudy 36 2.4 33 0.3 86 86 NE 16 26 29.88 1012 10 16 0.00 0.03
1:58 am 01:58 Cloudy 36 2.3 32 0.1 86 86 NE 14 22 29.87 1012 10 16 0.00 0.00
2:12 am 02:12 Cloudy with Light Rain 36 2 32 0 87 87 NE 15 24 29.85 1011 10 16 0.00 0.00
2:38 am 02:38 Cloudy with Light Snow 34 1 32 0 93 93 ENE 18 30 29.83 1010 3 5 0.00 0.00
2:40 am 02:40 Cloudy with Light Snow 34 1 32 0 93 93 ENE 16 26 29.83 1010 3 4 0.00 0.00
2:48 am 02:48 Cloudy with Light Snow 32 0 32 0 100 100 ENE 18 30 29.83 1010 2 3 0.00 0.00
2:52 am 02:52 Windy with Snow Likely 32 0 32 0 100 100 NE 21 33 29.80 1009 2 2 0.00 0.00
2:53 am 02:53 Windy with Snow Likely 32 0 32 0 100 100 NE 21 33 29.80 1009 2 2 0.00 0.00
2:58 am 02:58 Windy with Snow Likely 32 0 32 0 100 100 NE 22 35 29.79 1009 1 2 0.03 0.76
3:01 am 03:01 Windy with Snow Likely 32 0 32 0 100 100 NE 21 33 29.80 1009 1 2 0.00 0.00
3:11 am 03:11 Windy with Snow Likely 32 0 32 0 100 100 NE 21 33 29.77 1008 1 2 0.00 0.00
3:14 am 03:14 Windy with Snow Likely 32 0 32 0 100 100 NE 22 35 29.77 1008 2 2 0.00 0.00
3:17 am 03:17 Windy with Snow Likely 32 0 32 0 100 100 NE 21 33 29.77 1008 2 3 0.00 0.00
3:19 am 03:19 Cloudy with Light Snow 32 0 32 0 100 100 NE 18 30 29.77 1008 2 3 0.00 0.00
3:23 am 03:23 Windy with Snow Likely 32 0 32 0 100 100 NE 20 31 29.77 1008 3 5 0.00 0.00
3:32 am 03:32 Cloudy with Light Rain 32 0 32 0 100 100 NE 20 31 29.77 1008 7 11 0.00 0.00
3:33 am 03:33 Cloudy with Light Rain 32 0 32 0 100 100 NE 20 31 29.77 1008 8 13 0.00 0.00
3:36 am 03:36 Cloudy with Light Rain 32 0 32 0 100 100 NE 20 31 29.77 1008 8 13 0.00 0.00
3:42 am 03:42 Cloudy with Light Rain 32 0 32 0 100 100 NE 21 33 29.74 1007 9 14 0.00 0.00
3:43 am 03:43 Cloudy with Light Rain 32 0 32 0 100 100 NE 21 33 29.74 1007 9 14 0.00 0.00
3:47 am 03:47 Cloudy with Light Rain 32 0 32 0 100 100 NE 22 35 29.74 1007 9 14 0.00 0.00
3:58 am 03:58 Cloudy with Light Rain 32 0 32 0 100 100 NE 18 30 29.70 1006 8 13 0.02 0.51
4:02 am 04:02 Cloudy with Light Rain 32 0 32 0 100 100 NE 20 31 29.74 1007 9 14 0.00 0.00
4:14 am 04:14 Cloudy 32 0 32 0 100 100 NE 22 35 29.71 1006 10 16 0.00 0.00
4:23 am 04:23 Cloudy with Light Rain 32 0 32 0 100 100 NE 25 41 29.71 1006 10 16 0.00 0.00
4:27 am 04:27 Cloudy with Light Rain 34 1 32 0 93 93 NE 22 35 29.68 1005 10 16 0.00 0.00
4:58 am 04:58 Windy with Snow Likely 34 0.9 32 0.2 95 95 NE 21 33 29.65 1004 6 10 0.03 0.76
5:04 am 05:04 Windy with Snow Likely 32 0 32 0 100 100 NE 22 35 29.68 1005 5 8 0.00 0.00
5:09 am 05:09 Cloudy with Light Snow 32 0 32 0 100 100 NE 18 30 29.68 1005 3 4 0.00 0.00
5:12 am 05:12 Windy with Snow Likely 32 0 32 0 100 100 ENE 20 31 29.68 1005 2 3 0.00 0.00
5:14 am 05:14 Windy with Snow Likely 32 0 32 0 100 100 ENE 20 31 29.68 1005 2 2 0.00 0.00
5:16 am 05:16 Windy with Snow Likely 32 0 32 0 100 100 ENE 22 35 29.68 1005 1 2 0.00 0.00
5:18 am 05:18 Windy with Snow Likely 32 0 32 0 100 100 ENE 21 33 29.68 1005 1 2 0.00 0.00
5:19 am 05:19 Windy with Snow Likely 32 0 32 0 100 100 NE 20 31 29.68 1005 1 2 0.00 0.00
5:37 am 05:37 Windy with Snow Likely 32 0 32 0 100 100 NE 23 37 29.62 1003 1 2 0.00 0.00
5:42 am 05:42 Windy with Snow Likely 32 0 32 0 100 100 NE 24 39 29.62 1003 1 1 0.00 0.00
5:45 am 05:45 Cloudy with Heavy Snow 32 0 32 0 100 100 NE 23 37 29.62 1003 0 0 0.00 0.00
5:58 am 05:58 Cloudy with Heavy Snow 32 0 32 0 100 100 NE 26 43 29.57 1001 0 0 0.00 0.00
6:58 am 06:58 Cloudy with Snow 33 0.5 33 0.3 99 99 NE 26 43 29.55 1001 1 1 0.01 0.25
7:58 am 07:58 Windy with Snow Likely 32 0 32 0 100 100 NE 25 41 29.52 1000 1 1 0.00 0.00
8:58 am 08:58 Windy with Snow Likely 32 0 32 0 100 100 ENE 24 39 29.47 998 2 3 0.00 0.00
9:25 am 09:25 Cloudy with Mist and Fog 34 1 30 -1 87 87 ENE 23 37 29.46 998 6 10 0.00 0.00
9:58 am 09:58 Cloudy 34 1 32 0 93 93 E 23 37 29.45 997 10 16 0.00 0.00
10:58 am 10:58 Cloudy 36 2 32 0 87 87 ENE 25 41 29.45 997 10 16 0.00 0.00
11:58 am 11:58 Cloudy 36 2 32 0 87 87 ENE 17 28 29.42 996 10 16 0.00 0.00
12:58 pm 12:58 Cloudy 36 2 34 1 93 93 ENE 17 28 29.41 996 10 16 0.00 0.00
1:58 pm 13:58 Cloudy 36 2 34 1 93 93 ENE 10 17 29.38 995 10 16 0.00 0.00
2:58 pm 14:58 Cloudy 35 1.6 34 1 96 96 ENE 13 20 29.39 995 10 16 0.00 0.00
3:58 pm 15:58 Cloudy 35 1.6 34 1.3 98 98 NNE 12 19 29.43 997 10 16 0.00 0.00
4:29 pm 16:29 Cloudy with Light Snow 34 1 34 1 100 100 NNE 15 24 29.42 996 5 8 0.00 0.00
4:41 pm 16:41 Cloudy with Light Snow 34 1 34 1 100 100 NNE 13 20 29.42 996 2 3 0.00 0.00
4:58 pm 16:58 Cloudy with Light Snow 33 0.7 33 0.6 99 99 NNE 13 20 29.43 997 2 3 0.04 1.02
5:58 pm 17:58 Cloudy with Light Snow 33 0.8 33 0.6 99 99 N 9 15 29.46 998 6 10 0.03 0.76
6:58 pm 18:58 Cloudy with Light Snow 33 0.7 33 0.6 99 99 N 12 19 29.50 999 6 10 0.04 1.02
7:58 pm 19:58 Cloudy with Light Snow 33 0.7 33 0.6 99 99 N 18 30 29.53 1000 2 3 0.01 0.25
8:20 pm 20:20 Windy with Snow Likely 32 0 30 -1 93 93 N 25 41 29.52 1000 2 3 0.00 0.00
8:40 pm 20:40 Windy with Snow Likely 32 0 30 -1 93 93 N 22 35 29.53 1000 2 3 0.00 0.00
8:58 pm 20:58 Windy with Snow Likely 31 -0.5 30 -1.2 95 95 NNW 22 35 29.54 1000 2 3 0.00 0.03
9:58 pm 21:58 Windy with Snow Likely 32 -0.2 28 -2.1 87 87 NNW 21 33 29.58 1002 5 8 0.00 0.03
10:58 pm 22:58 Windy with Snow Likely 30 -1.3 26 -3.1 88 88 NNW 21 33 29.63 1003 10 16 0.00 0.03
11:58 pm 23:58 Cloudy 28 -2.3 24 -4.3 86 86 NNW 26 43 29.68 1005 10 16 0.00 0.03

Powered by AerisWeather